{"data":{"norad_id":53715,"epoch":"2026-09-20T21:01:33.871872Z","epoch_age_seconds":49200,"freshness":"FRESH","line1":"1 53715U 22107R   26263.87608648  .00000183  00000+0  16569-4 0  9991","line2":"2 53715  53.1606  82.2492 0001282  81.1693 278.9455 15.34385652224091","mean_motion":15.34385652,"eccentricity":0.0001282,"inclination_deg":53.1606,"raan_deg":82.2492,"arg_perigee_deg":81.1693,"mean_anomaly_deg":278.9455,"bstar":1.6569e-5,"rev_number":22409,"period_min":93.84863564926,"perigee_km":461.86888463316,"apogee_km":463.62288700508,"semimajor_km":6840.8828858191,"source":"CELESTRAK","updated_at":"2026-09-21T09:00:32.984250Z"}}